Lapse_Rate
7.8 7.9 8.1 8.3 8.6 8.3 9.1 9.3 9.2 8.2 8.3 8.0 7.9 7.8 7.0 7.3 7.6 6.9 7.0 6.8 6.7 6.4 6.8 6.9 7.0 7.2 7.3 7.3 7.3 7.3 7.2 7.1 7.0 7.0 6.8 6.7 6.6 6.6 6.5 6.5 6.6 6.6 6.7 6.7 6.7 6.7 6.7 6.8 6.7
7.5 7.7 7.8 8.4 8.2 8.1 8.9 8.7 8.4 8.3 8.1 7.9 7.6 7.8 7.3 7.3 7.4 7.0 7.1 6.9 6.8 6.5 6.6 6.8 7.0 7.0 7.2 7.3 7.3 7.3 7.1 7.1 7.1 7.0 6.9 6.8 6.6 6.6 6.6 6.7 6.6 6.6 6.7 6.6 6.6 6.6 6.6 6.5 6.6
7.4 7.8 7.8 7.8 7.8 8.4 8.7 8.4 8.4 8.3 8.1 7.8 8.2 8.1 7.2 7.6 7.4 7.2 7.4 7.2 7.0 6.9 6.6 6.7 6.8 7.0 7.0 7.0 7.2 7.3 7.2 7.1 7.0 6.9 6.8 6.8 6.7 6.7 6.6 6.6 6.7 6.7 6.7 6.7 6.8 6.7 6.7 6.7 6.6
7.2 7.3 7.7 8.5 8.5 8.4 8.6 8.2 8.3 8.2 8.1 8.1 8.1 8.1 7.3 7.2 7.5 7.1 7.3 7.5 7.1 7.0 7.0 6.7 6.7 6.8 7.0 7.0 7.1 7.1 7.2 7.1 7.0 6.9 6.8 6.8 6.7 6.7 6.6 6.7 6.7 6.7 6.7 6.8 6.7 6.7 6.8 6.7 6.6
7.0 7.2 7.1 7.1 8.3 8.9 8.2 8.3 8.1 7.9 8.1 7.9 7.7 7.8 7.2 7.2 7.5 7.3 7.2 7.5 7.3 7.1 7.1 7.0 6.7 6.7 6.9 7.0 7.0 7.1 7.1 7.0 7.0 7.0 6.9 6.7 6.7 6.6 6.5 6.5 6.6 6.6 6.7 6.6 6.6 6.6 6.7 6.7 6.6
6.9 6.9 7.0 7.2 8.8 9.2 7.7 8.2 7.7 7.9 7.9 7.5 7.6 7.9 7.0 6.8 7.4 7.2 7.0 7.5 7.5 7.1 7.0 7.2 7.2 6.9 6.7 6.7 7.0 7.0 7.0 7.0 7.0 6.9 6.8 6.8 6.7 6.7 6.6 6.6 6.6 6.5 6.5 6.5 6.6 6.5 6.5 6.5 6.5
6.6 7.0 7.7 8.1 9.0 9.0 8.3 7.5 7.5 7.5 7.7 7.8 7.7 7.3 6.9 6.6 6.3 7.1 7.6 7.6 7.7 7.7 7.3 7.2 7.3 7.3 7.1 6.8 6.8 6.9 7.0 7.0 6.9 6.8 6.8 6.8 6.7 6.7 6.7 6.7 6.7 6.6 6.6 6.5 6.5 6.4 6.3 6.3 6.3
6.7 7.0 7.7 7.7 8.0 8.1 7.2 7.3 7.5 7.6 7.6 7.9 8.2 8.2 7.4 6.4 6.8 6.9 7.3 7.5 7.7 7.7 7.7 7.5 7.4 7.4 7.6 7.4 7.1 6.8 6.8 6.9 7.1 7.0 6.9 6.8 6.8 6.8 6.9 6.9 6.9 6.8 6.7 6.5 6.5 6.5 6.4 6.4 6.4
6.5 7.0 7.2 7.0 7.3 7.6 7.3 7.2 7.4 7.4 7.6 8.0 7.9 8.0 7.2 6.6 6.9 7.2 6.7 6.6 6.8 7.3 7.7 7.9 7.8 7.6 7.5 7.6 7.5 7.3 7.2 6.9 6.9 7.0 7.2 7.1 7.1 7.0 7.0 6.9 7.0 6.9 6.8 6.8 6.7 6.6 6.5 6.4 6.4
6.6 6.8 6.9 6.9 6.9 7.1 7.3 7.4 7.4 7.2 7.5 8.0 8.0 8.0 7.8 7.8 8.0 8.1 7.8 7.2 7.1 7.0 7.0 7.5 7.9 8.1 7.7 7.7 7.7 7.7 7.4 7.4 7.1 7.0 7.1 7.2 7.3 7.2 7.1 7.0 6.9 6.9 6.9 6.9 6.9 6.8 6.7 6.6 6.6
6.8 6.9 7.0 7.0 6.8 6.9 7.2 7.6 7.3 6.9 7.3 7.4 7.7 8.0 8.2 8.4 8.0 7.8 8.0 8.5 8.1 7.4 7.0 7.0 7.0 7.2 7.5 7.8 7.8 7.9 7.9 7.8 7.5 7.3 7.1 7.2 7.1 7.2 7.2 7.1 7.1 7.0 7.0 6.9 6.9 6.9 6.8 6.7 6.7
6.5 6.8 6.7 6.9 7.0 7.0 7.3 7.0 6.7 6.8 7.6 7.2 7.3 7.5 7.7 7.8 7.8 7.9 7.9 8.1 8.3 7.8 7.0 6.6 6.5 6.9 6.9 6.9 7.5 7.6 7.9 8.0 8.1 7.8 7.4 7.3 7.2 7.3 7.2 7.3 7.2 7.1 7.1 7.0 6.9 6.9 6.8 6.8 6.7
6.8 6.6 6.6 6.8 7.0 7.2 7.0 6.9 6.9 7.2 7.5 7.0 7.1 7.2 7.5 7.7 7.7 7.7 7.8 7.8 7.8 8.1 7.5 6.7 6.4 6.8 6.9 7.1 7.3 7.5 7.5 7.6 8.0 8.1 7.9 7.6 7.6 7.4 7.3 7.3 7.3 7.3 7.2 7.1 7.0 6.9 6.8 6.7 6.7
6.2 6.1 6.5 7.1 7.5 7.3 7.1 6.9 7.2 7.4 7.2 7.3 7.5 7.6 7.8 7.8 7.2 7.0 7.1 7.4 7.6 7.9 8.0 7.8 7.4 7.5 7.1 7.1 7.3 7.6 7.3 7.5 7.5 7.7 8.2 8.0 7.8 7.9 7.7 7.5 7.4 7.2 7.4 7.5 7.4 7.1 6.9 6.8 6.8
6.1 5.9 6.3 6.8 6.6 6.9 7.0 7.3 7.6 7.4 7.8 8.1 8.2 8.4 8.6 7.8 7.3 6.6 6.8 7.5 8.1 8.6 9.0 9.1 8.9 8.6 8.0 7.4 7.1 7.1 7.1 7.0 7.5 8.0 8.2 8.4 8.1 8.0 8.2 8.0 8.0 7.7 7.6 7.5 7.4 7.3 7.1 7.0 7.1
6.0 5.8 6.0 6.9 7.4 7.6 7.0 7.2 7.7 7.8 7.8 7.8 7.9 8.2 8.9 8.1 7.3 7.1 7.6 7.6 7.7 8.2 8.9 9.1 9.1 8.4 7.8 7.5 7.7 7.1 7.1 7.0 6.9 7.6 8.1 8.4 8.5 8.4 8.2 8.3 8.2 8.2 7.9 7.6 7.5 7.5 7.5 7.4 7.2
6.2 6.1 6.3 6.7 8.0 7.5 7.5 7.2 7.6 7.9 8.0 7.7 7.6 7.6 7.8 7.6 7.4 7.3 7.8 7.7 7.9 8.2 8.0 7.9 7.9 8.1 7.7 7.3 7.6 7.3 7.0 7.3 7.0 7.0 6.8 7.5 8.0 8.4 8.5 8.2 8.6 8.3 8.1 7.9 7.8 7.8 7.7 7.6 7.5
5.7 6.3 6.8 6.8 7.0 6.9 7.3 7.5 7.7 7.9 7.6 7.8 7.4 7.4 7.6 7.8 7.9 7.9 8.5 8.1 8.1 7.8 7.8 7.4 7.3 7.5 7.6 7.2 6.8 7.2 7.4 7.3 7.3 7.1 6.9 7.3 7.2 7.7 8.0 8.2 8.3 8.4 8.3 7.9 8.0 8.1 8.1 8.0 7.6
6.5 6.5 6.5 6.7 7.0 6.8 6.9 7.0 7.5 7.7 7.6 7.4 7.2 7.2 7.7 7.8 7.8 8.1 8.5 8.1 7.9 7.8 7.7 7.2 7.1 7.1 7.4 7.3 7.5 7.2 7.0 7.1 7.3 7.3 7.4 7.5 7.5 7.5 7.7 8.0 8.3 8.4 8.4 8.6 8.2 7.9 7.8 7.8 8.1
6.7 6.6 6.5 6.9 7.0 6.9 6.8 6.8 7.2 7.6 7.2 7.7 7.6 7.5 7.5 7.8 8.0 8.0 8.0 8.1 7.8 7.8 7.7 7.4 6.8 6.7 7.0 7.2 7.1 7.2 7.3 7.4 7.3 7.4 7.3 7.7 7.7 7.7 7.8 7.9 8.1 8.2 8.5 8.6 8.6 8.4 8.2 7.8 7.8
6.6 6.3 6.4 6.2 6.6 7.4 6.5 7.3 8.1 8.4 8.1 8.3 8.0 7.9 7.8 7.8 8.1 8.1 8.1 7.3 7.2 7.3 7.6 7.5 6.7 6.5 6.5 6.6 6.6 6.8 6.9 7.1 7.3 7.4 7.4 7.4 7.3 7.5 7.6 7.7 7.8 7.9 8.1 8.5 8.6 8.4 8.3 8.0 8.1
6.3 6.4 6.3 6.3 6.0 6.6 6.6 6.1 8.2 8.4 8.6 8.8 8.5 7.7 7.2 7.1 6.8 6.5 6.5 6.5 6.7 6.8 6.8 7.0 6.7 6.5 6.6 6.7 6.5 6.5 6.5 6.8 7.0 7.1 7.5 7.8 7.6 7.4 7.3 7.4 7.6 7.6 7.8 8.0 8.4 8.5 8.4 7.9 7.9
5.7 6.0 6.3 6.3 6.4 6.8 7.7 7.1 8.6 8.8 8.5 8.4 7.8 7.1 6.5 6.0 5.7 5.4 5.4 5.2 4.9 4.9 5.4 6.0 6.3 6.5 6.5 7.0 7.3 6.8 6.6 6.6 6.5 6.7 7.1 7.2 7.2 7.5 7.5 7.5 7.4 6.9 7.0 7.9 8.3 8.1 7.8 8.0 6.9
5.9 6.2 6.6 7.0 6.9 6.4 7.0 7.6 8.4 7.4 7.6 7.4 7.2 6.9 6.4 6.0 5.5 5.2 4.8 4.9 5.2 5.3 6.0 7.0 7.0 7.5 7.5 7.8 7.5 7.0 6.8 6.7 6.7 6.8 6.7 6.9 7.0 7.1 7.1 7.2 7.6 7.2 7.3 6.8 7.3 7.4 6.9 7.0 6.7
6.5 6.5 6.2 6.2 5.8 6.1 7.8 7.4 6.9 7.5 7.3 6.7 6.8 6.9 6.9 6.7 6.6 6.4 6.2 6.0 6.0 6.0 5.8 5.6 6.1 6.7 7.3 7.1 7.3 7.2 7.0 7.0 6.7 6.5 6.6 6.8 6.9 6.8 7.1 7.1 7.1 6.9 7.1 7.4 7.4 7.0 6.7 7.0 6.7
6.3 6.3 6.3 5.5 5.4 5.3 6.3 7.3 7.2 7.2 6.8 7.0 7.3 7.2 7.2 7.1 7.1 7.0 7.0 6.9 6.7 6.4 6.1 5.9 5.9 5.5 5.5 5.9 6.8 6.9 7.0 7.0 6.7 6.5 6.0 6.0 6.3 6.5 6.9 7.4 7.2 6.9 6.8 6.7 7.0 6.9 6.7 6.6 7.1
6.6 6.7 6.6 6.4 6.7 6.2 6.3 6.9 7.6 7.3 7.6 7.1 6.7 7.0 7.4 7.4 7.1 6.6 6.5 6.4 6.5 6.1 5.8 5.6 5.3 5.5 5.8 6.2 6.0 5.6 5.9 6.5 6.4 6.0 5.9 5.4 5.8 6.3 7.0 6.5 6.8 6.2 6.8 6.5 6.7 5.9 6.3 6.9 6.0
6.4 6.4 6.4 6.7 5.8 5.6 6.2 6.1 6.8 7.2 7.3 6.4 6.5 6.8 6.7 6.8 7.0 6.6 6.5 6.0 6.3 6.4 6.3 5.8 5.6 5.9 6.5 6.2 5.6 5.4 5.4 5.3 5.8 6.2 5.7 5.7 5.8 6.0 6.3 6.4 6.4 5.8 6.3 6.2 6.0 5.0 5.4 6.0 4.9
6.4 6.4 6.4 6.3 6.7 5.9 5.0 5.4 7.8 7.4 6.6 6.6 6.5 6.5 6.5 6.3 6.2 6.2 6.2 5.9 6.7 6.6 6.2 6.2 6.2 6.5 6.8 7.3 6.5 6.8 6.5 5.5 5.2 5.7 5.7 5.3 5.5 6.1 6.1 6.0 5.8 6.1 6.5 6.2 5.7 5.3 5.8 5.3 4.9
6.3 6.1 6.2 5.9 5.8 6.0 6.4 5.4 7.0 6.8 6.9 6.8 6.5 6.4 6.4 6.3 6.0 5.6 5.8 6.1 6.4 6.3 6.2 6.7 6.8 6.6 7.2 7.8 7.5 7.5 7.1 6.3 5.8 5.7 5.8 6.1 5.5 5.9 5.9 6.1 6.1 5.9 5.4 6.1 5.8 5.2 4.8 5.4 5.2
Wind_Speed
9 15 2 2 3 5 6 3 6 7 5 7 4 2 6 8 7 3 2 15 18 17 18 18 23 22 20 19 20 20 18 15 14 14 13 14 14 14 13 13 13 13 12 11 10 9 8 9 8
5 7 2 1 2 4 5 6 7 7 5 6 5 6 8 5 7 11 6 10 18 16 19 17 21 22 20 19 18 18 19 18 16 15 14 13 12 12 13 13 12 12 13 12 11 10 8 7 8
2 3 3 3 3 1 4 7 7 4 6 1 2 4 8 6 5 7 13 16 16 13 18 18 21 23 21 19 18 17 17 18 18 17 16 16 15 14 13 13 13 13 13 13 13 12 12 10 8
3 3 4 3 3 5 8 6 8 8 7 2 3 5 5 5 5 9 19 19 16 14 16 20 21 21 22 21 19 18 17 17 17 17 16 15 14 13 13 13 13 12 13 14 13 13 13 12 13
1 2 3 4 5 3 6 6 6 7 8 6 7 5 5 5 11 9 17 17 17 14 15 20 20 21 21 21 21 21 20 18 17 16 16 15 14 13 13 13 13 12 12 12 12 13 14 14 14
4 3 4 4 6 2 5 4 4 9 8 7 7 5 4 9 10 8 9 10 12 12 11 18 22 20 19 21 20 19 21 21 20 18 17 17 16 16 15 14 13 13 12 12 13 13 14 14 15
3 2 5 6 3 5 4 4 7 5 7 7 8 5 4 7 10 10 10 10 10 10 10 10 16 19 20 19 20 22 21 19 20 20 19 19 19 19 18 17 17 16 16 15 15 14 15 16 16
2 3 6 6 7 2 7 5 5 5 4 5 2 4 5 5 11 10 10 11 13 13 13 13 14 16 16 17 21 22 22 23 23 21 21 21 20 20 20 20 20 19 18 17 17 17 18 18 18
2 3 4 6 9 7 8 10 10 9 11 6 10 13 5 3 7 6 5 6 10 10 14 14 16 17 19 17 17 20 22 22 22 22 23 22 16 17 17 18 19 20 21 21 20 20 20 20 20
4 2 5 5 4 6 8 10 9 9 10 9 9 10 10 7 3 1 6 7 11 15 14 16 15 17 15 18 20 19 17 17 19 19 19 19 18 18 18 18 23 22 23 22 22 21 21 20 12
4 1 6 9 5 8 7 10 7 7 9 2 5 6 7 7 10 8 8 4 16 19 14 16 14 14 15 12 10 12 15 14 16 19 19 18 16 17 17 15 18 19 21 17 19 17 17 15 14
5 9 7 8 9 9 9 8 7 6 8 4 5 6 6 10 9 9 8 14 19 8 10 11 13 13 15 8 9 9 8 10 8 16 19 13 7 8 9 7 13 14 16 13 14 13 16 16 17
6 9 10 10 12 11 9 4 1 7 11 3 5 7 8 9 9 7 12 17 16 18 16 21 4 11 12 13 9 10 10 9 12 13 18 18 9 10 8 10 9 11 16 13 10 8 9 11 14
7 8 11 14 15 11 12 4 2 11 9 4 2 1 5 5 10 15 17 18 20 19 18 16 19 8 5 10 11 10 9 9 10 12 15 22 16 10 10 10 11 9 15 16 11 11 11 11 11
9 9 12 16 10 10 4 3 4 5 8 8 9 6 6 14 17 14 14 18 18 16 19 21 18 18 16 9 7 6 7 9 10 11 19 22 22 14 13 11 11 12 14 14 10 12 11 10 11
8 5 4 9 13 6 5 6 7 10 7 9 10 8 7 11 13 16 17 17 18 19 19 18 14 14 10 9 8 7 7 5 5 8 11 17 21 21 15 11 12 11 9 9 10 10 11 11 10
5 2 8 10 11 8 7 7 6 9 9 11 9 7 11 11 16 16 17 17 18 18 20 21 20 14 12 12 12 12 12 6 7 5 5 9 15 20 14 14 12 12 11 10 11 9 11 11 11
6 7 8 7 9 12 13 12 11 12 10 14 6 9 9 15 12 14 15 15 16 16 17 19 17 18 10 9 11 11 10 11 8 6 8 8 6 13 15 13 15 11 11 12 11 14 10 11 12
5 6 7 8 9 10 11 14 16 18 18 4 8 9 9 12 10 12 13 12 16 17 17 17 18 20 12 11 13 12 12 12 11 12 12 9 9 9 15 14 14 14 13 16 15 14 16 12 9
8 6 7 6 13 12 14 18 16 14 2 8 10 11 12 14 13 13 13 16 14 14 12 16 17 17 12 11 10 10 11 10 11 10 13 15 15 14 12 15 15 16 14 16 16 15 13 13 13
6 9 9 9 9 8 11 8 7 14 12 13 13 12 13 12 12 12 15 11 10 11 10 15 13 14 11 13 11 11 10 10 11 14 14 15 20 14 16 19 16 16 15 15 16 15 19 14 12
5 9 8 11 7 4 5 5 13 10 10 9 10 11 10 11 11 12 11 9 9 8 9 11 11 13 10 12 12 14 12 12 12 11 12 15 18 21 21 19 19 17 14 17 16 14 16 15 15
6 7 8 12 9 4 7 2 7 8 4 8 10 13 11 11 11 9 7 7 7 8 7 7 7 10 7 9 10 9 12 10 11 11 16 14 15 14 17 20 18 16 15 17 18 16 17 15 15
9 9 9 6 2 1 3 2 5 10 12 16 14 12 10 9 11 12 9 8 6 6 6 6 7 9 6 6 10 11 12 13 13 14 11 10 10 10 14 17 17 17 16 17 17 18 19 18 15
11 6 4 5 5 4 17 7 5 14 16 14 8 7 8 10 7 5 7 5 5 6 8 8 9 11 9 10 10 9 9 11 13 14 10 12 9 10 13 13 14 14 17 17 17 18 18 16 16
5 1 2 3 3 8 5 3 2 12 13 12 11 9 10 13 13 12 9 5 4 7 8 8 11 15 16 12 11 8 9 6 7 11 10 9 10 9 13 11 13 16 18 17 17 8 8 14 14
4 3 2 2 4 3 4 5 7 10 19 17 17 15 13 14 13 13 14 7 8 8 9 11 13 14 14 12 11 11 10 10 8 9 9 8 10 10 15 14 15 16 19 19 12 10 15 15 12
5 3 4 4 2 4 6 11 9 15 24 17 11 9 9 8 11 10 12 7 6 6 7 11 12 13 11 11 10 8 9 9 9 9 11 11 11 12 14 17 17 14 18 21 22 13 17 21 15
4 2 4 2 1 3 3 9 10 22 13 17 16 15 6 8 8 4 5 5 4 6 8 9 12 12 12 10 10 10 10 10 10 10 11 12 11 13 13 14 16 19 19 17 17 18 19 23 18
4 6 6 3 7 2 4 18 11 10 17 19 14 13 11 9 5 5 5 6 7 6 10 10 11 11 10 9 10 10 10 11 11 11 11 12 13 13 13 14 15 16 17 20 19 19 18 20 18
Wind_Direction
323 300 181 356 22 85 282 35 117 86 71 151 185 235 108 101 96 165 98 123 130 145 153 156 150 150 158 164 165 168 164 165 166 168 166 160 156 152 148 144 142 144 145 144 143 139 133 128 123
329 311 37 305 83 24 320 44 48 114 158 186 202 104 91 98 108 121 102 141 140 147 150 157 156 154 161 168 172 174 169 168 173 173 171 170 165 161 159 155 157 155 154 156 156 154 149 147 148
271 206 72 142 230 186 84 28 7 355 125 110 29 138 126 141 120 126 137 147 135 144 152 159 162 158 164 171 174 179 179 176 178 178 179 177 175 175 170 168 170 169 166 166 166 166 164 166 175
346 32 330 109 261 256 91 20 350 1 16 79 40 55 56 133 124 141 140 140 138 149 152 160 165 165 168 173 177 181 185 186 185 184 184 183 184 181 178 179 181 181 179 176 176 173 173 182 180
129 26 336 322 270 140 88 47 351 25 5 353 49 3 78 53 86 109 140 145 143 155 146 161 171 171 174 179 181 183 185 190 192 191 189 186 188 189 188 193 192 193 189 189 186 182 186 191 197
0 99 350 280 298 96 62 84 38 36 336 8 11 38 102 126 110 138 124 138 143 148 148 160 173 177 181 182 186 189 188 190 193 196 195 193 191 191 196 197 201 203 205 203 201 196 199 203 209
128 56 243 288 349 58 99 31 78 46 331 341 317 77 129 118 147 147 142 132 134 131 138 153 175 181 184 190 191 191 192 195 197 198 199 199 198 198 197 199 202 206 207 209 211 209 211 214 217
135 112 319 338 28 19 19 6 45 15 253 283 273 206 167 185 158 149 149 149 150 152 157 162 170 180 186 193 199 199 198 196 197 199 202 205 205 207 205 203 206 207 209 211 215 216 216 219 224
128 9 324 316 358 313 15 21 345 340 4 350 35 63 96 153 140 142 145 155 160 166 176 177 174 180 183 188 200 201 201 201 200 200 201 204 206 209 211 211 209 210 212 213 215 217 222 224 229
135 123 255 289 354 5 7 23 338 18 350 349 21 20 22 18 356 316 180 207 184 186 190 186 188 183 183 192 190 194 204 205 203 203 201 201 200 203 209 211 216 215 214 215 217 221 224 228 225
297 273 297 326 14 16 348 344 329 25 332 345 43 12 12 346 324 310 296 232 206 204 194 195 188 182 181 196 192 190 194 199 207 204 203 203 204 210 208 209 213 216 214 214 216 219 222 220 218
358 325 7 321 337 345 324 295 330 13 273 256 64 49 3 336 328 358 33 35 44 14 238 209 191 186 189 186 192 191 195 193 202 207 204 199 209 211 216 211 206 202 205 207 206 211 216 217 217
346 336 329 326 313 302 285 320 281 282 292 283 73 37 350 340 341 42 42 42 40 42 35 29 280 211 196 190 196 198 201 199 198 201 206 207 208 214 213 219 210 204 202 201 204 207 210 216 219
310 318 308 293 282 273 271 200 79 276 292 253 5 23 310 347 58 46 42 40 40 38 32 29 28 343 245 215 204 203 199 205 199 198 202 208 214 213 212 216 218 211 204 203 205 206 206 214 212
296 311 301 288 299 279 148 309 250 325 357 16 351 318 325 80 66 63 49 45 40 36 27 20 25 36 19 333 274 280 247 191 202 205 203 202 208 215 212 217 217 219 210 209 206 211 213 213 213
284 314 315 296 4 340 71 265 309 343 11 330 333 342 49 68 65 57 53 44 38 29 28 19 16 34 10 325 334 299 254 255 226 210 208 209 209 211 217 217 223 217 213 203 210 208 212 215 211
24 339 340 335 338 340 23 314 325 344 347 322 301 360 87 74 65 61 55 51 44 34 25 16 7 19 5 351 341 341 300 265 264 245 217 218 210 214 212 221 220 215 214 212 213 210 208 211 214
333 340 340 331 312 355 352 333 336 324 322 291 45 85 78 79 74 67 59 59 54 41 31 21 7 357 18 10 354 346 342 334 296 262 258 239 222 210 214 221 223 211 214 217 219 221 212 217 215
335 334 317 298 354 4 331 323 317 302 294 349 106 85 73 73 69 58 51 53 53 45 33 22 7 358 19 13 4 351 342 328 327 321 296 274 250 227 215 223 223 221 215 218 215 220 224 224 222
342 329 344 341 355 350 319 303 286 278 26 108 89 67 65 54 49 50 44 47 38 42 35 25 9 2 21 13 4 354 334 329 323 318 325 304 274 241 228 225 224 218 222 223 221 215 221 226 214
351 30 352 329 337 307 310 301 302 315 91 80 72 78 65 63 52 44 42 43 42 29 36 23 11 8 24 10 0 352 342 333 336 336 329 320 312 285 251 235 228 220 218 222 222 218 216 222 223
354 345 339 312 334 306 11 292 309 88 78 81 76 69 63 52 43 46 41 37 38 21 33 24 12 16 18 8 7 1 349 333 326 318 324 319 329 331 300 249 236 229 218 218 221 220 220 216 220
260 268 287 282 287 331 348 0 290 119 128 97 69 64 53 53 44 34 41 44 32 28 32 15 17 8 29 18 14 1 349 335 325 327 324 335 337 340 352 353 327 259 231 223 218 218 220 222 221
334 2 316 297 225 122 51 144 303 33 40 63 55 52 51 52 26 8 13 29 18 15 30 16 9 15 42 21 16 9 351 344 339 340 337 344 348 355 354 350 346 337 294 234 222 217 218 219 217
11 12 354 2 360 245 8 359 46 57 59 58 51 49 43 30 358 345 338 358 12 23 31 21 11 20 22 15 9 357 354 357 350 343 340 343 348 350 355 3 9 350 328 341 249 226 222 218 214
315 320 102 302 330 292 301 217 155 83 54 30 8 33 18 18 358 336 339 338 353 39 36 17 25 19 5 359 4 347 342 8 8 354 347 346 352 357 354 6 25 14 354 5 342 343 270 223 217
334 25 250 283 273 319 259 309 63 83 26 19 16 2 358 350 7 351 332 319 34 41 30 44 33 26 22 17 8 358 353 11 15 5 349 356 5 4 359 6 19 36 32 11 6 20 43 13 25
163 209 26 344 324 290 300 306 250 351 355 4 4 349 337 9 352 358 41 34 40 51 59 47 41 32 15 11 3 351 15 2 17 13 12 2 12 20 22 21 12 20 44 56 11 7 34 55 0
2 19 30 122 203 217 317 285 360 342 343 347 341 336 350 341 319 6 17 11 23 55 70 53 39 20 11 14 5 13 15 15 20 27 23 354 17 23 24 32 35 30 33 39 56 26 33 56 33
103 32 42 65 293 236 228 277 309 331 343 341 341 343 333 318 346 41 9 21 10 54 62 49 34 24 6 19 26 20 23 25 25 24 18 13 18 28 26 27 33 35 42 40 40 47 42 50 50